Station CHCM2 - 8573927 - Chesapeake City, MD Image indicating link to RSS feed of recent meteorological observations for station CHCM2


Conditions at CHCM2 as of
(8:48 pm EDT on 05/17/2024)
0048 GMT on 05/18/2024:
     

Click on the graph icon in the table below to see a time series plot of the last five days of that observation.

5-day plot - Wind Direction Wind Direction (WDIR):WSW ( 240 deg true )
5-day plot - Wind Speed Wind Speed (WSPD): 1.9 kts
5-day plot - Wind Gust Wind Gust (GST): 2.9 kts
5-day plot - Atmospheric Pressure Atmospheric Pressure (PRES):29.96 in
5-day plot - Water Temperature Water Temperature (WTMP): 66.6 °F
5-day plot - Wind Speed at 10 Meters Wind Speed at 10 meters (WSPD10M): 1.9 kts
5-day plot - Wind Speed at 20 Meters Wind Speed at 20 meters (WSPD20M): 1.9 kts
5-day plot -  Wind Speed, Wind Gust and Atmospheric Pressure Combined plot of Wind Speed, Gust, and Air Pressure
NOS Water Level Observation Network Water Level
Previous observations
TIME
(EDT)
5-day plot - Wind Direction
WDIR
 
5-day plot - Wind Speed
WSPD
kts
5-day plot - Wind Gust
GST
kts
5-day plot - Wave Height
WVHT
ft
5-day plot - Dominant Wave Period
DPD
sec
5-day plot - Average Wave Period
APD
sec
5-day plot - Mean Wave Direction
MWD
 
5-day plot - Atmospheric Pressure
PRES
in
5-day plot - Pressure Tendency
PTDY
in
5-day plot - Air Temperature
ATMP
°F
5-day plot - Water Temperature
WTMP
°F
5-day plot - Dew Point
DEWP
°F
5-day plot - Salinity
SAL
psu
5-day plot - Visibility
VIS
nmi
5-day plot - Tide (above MLLW)
TIDE
ft
2024-05-17 08:42 pmWSW 1.9 1.9----29.95-- 66.6----
2024-05-17 08:36 pmSSW 1.0 1.9----29.95-- 66.6----
2024-05-17 08:30 pmSSW 1.0 1.9----29.95- 64.2 66.6----
2024-05-17 08:24 pmSSE 1.9 1.9----29.95- 64.4 66.6----
2024-05-17 08:18 pmSSE 1.0 1.9----29.95- 64.6 66.6----
2024-05-17 08:12 pm S 1.9 2.9----29.95- 64.8 66.6----
2024-05-17 08:06 pm S 1.9 2.9----29.95- 64.9 66.6----
2024-05-17 08:00 pm S 1.0 1.9----29.95-0.01 65.1 66.6----
2024-05-17 07:54 pm- 0.0 1.9----29.95- 65.3 66.6----
2024-05-17 07:48 pmSSE 1.9 2.9----29.95- 65.5 66.6----
2024-05-17 07:42 pmSSE 2.9 4.1----29.95- 65.5 66.6----
2024-05-17 07:36 pm SE 1.9 2.9----29.95- 65.7 66.6----
2024-05-17 07:30 pm SE 1.9 4.1----29.95- 65.8 66.6----
2024-05-17 07:24 pmSSE 1.9 4.1----29.96- 65.8 66.6----
2024-05-17 07:18 pmSSE 2.9 5.1----29.96- 65.8 66.6----
2024-05-17 07:12 pmSSE 2.9 5.1----29.96- 66.0 66.6----
2024-05-17 07:06 pmSSE 2.9 4.1----29.96- 66.2 66.6----
2024-05-17 07:00 pm SE 1.9 4.1----29.96+0.00 66.4 66.6----
2024-05-17 06:54 pmSSE 2.9 5.1----29.96- 66.4 66.6----
2024-05-17 06:48 pm SE 1.0 2.9----29.96- 66.6 66.6----
2024-05-17 06:42 pm S 1.9 2.9----29.96- 66.6 66.6----
2024-05-17 06:36 pmSSE 1.9 2.9----29.97- 66.6 66.6----
2024-05-17 06:30 pm-------29.97- 66.6 66.6----
2024-05-17 06:24 pm-------29.97- 66.6 66.6----
2024-05-17 06:18 pmSSW 2.9 5.1----29.97-- 66.6----
2024-05-17 06:12 pm S 4.1 5.1----29.97-- 66.6----
2024-05-17 06:06 pm S 1.9 4.1----29.97-- 66.6----
2024-05-17 06:00 pmSSE 1.9 4.1----29.97-0.01 66.9 66.6----
2024-05-17 05:54 pm SE 2.9 5.1----29.97- 66.9 66.6----
2024-05-17 05:48 pm S 4.1 4.1----29.97- 66.7 66.6----
2024-05-17 05:42 pm S 2.9 4.1----29.97- 66.7 66.6----
2024-05-17 05:36 pmSSE 2.9 5.1----29.97- 66.9 66.6----
2024-05-17 05:30 pm SE 2.9 4.1----29.96- 66.9 66.6----
2024-05-17 05:24 pm SE 1.9 4.1----29.96- 67.1 66.4----
2024-05-17 05:18 pm SE 1.9 4.1----29.96- 66.9 66.4----
2024-05-17 05:12 pmESE 1.9 5.1----29.96- 66.9 66.4----
2024-05-17 05:06 pm SE 2.9 5.1----29.96- 66.9 66.4----
2024-05-17 05:00 pmESE 1.0 4.1----29.96-0.01 67.1 66.4----
2024-05-17 04:54 pmESE 1.9 5.1----29.96- 67.1 66.4----
2024-05-17 04:48 pmESE 2.9 5.1----29.97- 66.9 66.4----
2024-05-17 04:42 pm E 1.9 4.1----29.97- 66.9 66.4----
2024-05-17 04:36 pm- 0.0 4.1----29.97- 67.3 66.4----
2024-05-17 04:30 pm SE 1.9 4.1----29.96- 67.1 66.2----
2024-05-17 04:24 pm SE 4.1 5.1----29.96- 66.6 66.2----
2024-05-17 04:18 pmESE 4.1 7.0----29.96- 66.9 66.2----
2024-05-17 04:12 pm E 2.9 5.1----29.96- 66.7 66.2----
2024-05-17 04:06 pm SE 5.1 6.0----29.97- 66.7 66.2----
2024-05-17 04:00 pm SE 4.1 6.0----29.97+0.00 66.9 66.0----
2024-05-17 03:54 pmSSW 1.0 5.1----29.97- 66.9 66.0----
2024-05-17 03:48 pmSSE 4.1 6.0----29.97- 66.9 66.0----
2024-05-17 03:42 pmENE 1.0 7.0----29.97- 66.9 66.0----
2024-05-17 03:36 pm E 4.1 7.0----29.97- 66.4 66.0----
2024-05-17 03:30 pm E 1.0 5.1----29.97- 66.7 65.8----
2024-05-17 03:24 pm SE 1.9 5.1----29.97- 67.1 65.8----
2024-05-17 03:18 pm E 4.1 6.0----29.98- 66.0 65.8----
2024-05-17 03:12 pm E 2.9 6.0----29.98- 66.6 65.8----
2024-05-17 03:06 pmESE 2.9 8.0----29.98- 66.9 65.8----
2024-05-17 03:00 pm E 5.1 7.0----29.98+0.00 65.8 65.7----
2024-05-17 02:54 pm E 5.1 7.0----29.98- 65.5 65.7----
2024-05-17 02:48 pmENE 6.0 8.0------- 65.7----
2024-05-17 02:42 pm E 5.1 8.0------- 65.5----
2024-05-17 02:36 pm E 6.0 7.0------- 65.5----
2024-05-17 02:30 pm E 6.0 7.0----29.98- 65.3 65.3----
2024-05-17 02:24 pm E 5.1 8.9----29.98- 65.3 65.3----
2024-05-17 02:18 pm E 6.0 7.0----29.98- 65.3 65.3----
2024-05-17 02:12 pm E 5.1 6.0----29.98- 65.3 65.3----
2024-05-17 02:06 pm E 4.1 5.1----29.98- 65.3 65.3----
2024-05-17 02:00 pm E 4.1 5.1----29.98- 65.5 65.1----
2024-05-17 01:54 pm E 1.9 5.1----29.98- 65.7 65.1----
2024-05-17 01:48 pm E 2.9 7.0----29.97-- 65.1----
2024-05-17 01:42 pm E 6.0 8.0----29.97-- 65.1----
2024-05-17 01:36 pm E 6.0 8.0----29.97-- 65.1----
2024-05-17 01:30 pmESE 5.1 8.0----29.97- 65.3 65.1----
2024-05-17 01:24 pm E 7.0 8.0----29.97- 64.8 65.1----
2024-05-17 01:18 pm E 8.0 11.1----29.98- 64.6 65.1----
2024-05-17 01:12 pmENE 8.9 11.1----29.98- 64.4 65.1----
2024-05-17 01:06 pmENE 6.0 8.9----29.97- 64.9 65.1----
2024-05-17 01:00 pmENE 6.0 11.1----29.97- 65.1 65.1----
2024-05-17 12:54 pm E 5.1 8.9----29.97- 64.9 65.1----
2024-05-17 12:48 pm E 7.0 9.9----29.97- 64.8 65.1----
2024-05-17 12:42 pm E 9.9 11.1----29.97- 64.6 65.1----
2024-05-17 12:36 pm E 6.0 8.0----29.97- 64.8 64.9----
2024-05-17 12:30 pm NE 5.1 8.0----29.97- 64.9 64.9----
2024-05-17 12:24 pm E 5.1 8.0----29.98- 64.6 64.9----
2024-05-17 12:18 pm E 7.0 8.9----29.98- 64.4 64.9----
2024-05-17 12:12 pm E 7.0 8.9----29.98- 64.4 65.1----
2024-05-17 12:06 pm E 6.0 8.0----29.98- 64.4 65.3----
2024-05-17 12:00 pm E 7.0 8.0----29.98+0.03 64.4 65.5----
2024-05-17 11:54 am E 7.0 8.0----29.98- 64.4 65.7----
2024-05-17 11:48 am E 6.0 8.0----29.98- 64.4 65.5----
2024-05-17 11:42 am E 5.1 8.0----29.98- 64.4 65.7----
2024-05-17 11:36 am E 4.1 7.0----29.98- 64.6 65.5----
2024-05-17 11:30 am E 5.1 7.0----29.98- 64.4 65.7----
2024-05-17 11:24 am E 5.1 7.0----29.98- 64.4 65.7----
2024-05-17 11:18 am E 7.0 8.0----29.98- 64.2 65.8----
2024-05-17 11:12 am E 6.0 8.0----29.98- 64.2 65.8----
2024-05-17 11:06 am E 4.1 6.0----29.98- 64.2 65.8----
2024-05-17 11:00 am E 2.9 5.1------ 64.0 65.8----
2024-05-17 09:48 amENE 5.1 6.0----29.97- 63.9 65.8----
2024-05-17 09:42 am E 5.1 8.9----29.97- 63.7 65.8----
2024-05-17 09:36 am E 7.0 8.0----29.96- 63.7 65.8----
2024-05-17 09:30 amENE 5.1 8.9----29.96- 63.9 65.8----
2024-05-17 09:24 amENE 6.0 13.0----29.96- 63.7 65.8----
2024-05-17 09:18 amENE 6.0 7.0----29.96- 63.9 65.8----
2024-05-17 09:12 amENE 5.1 7.0----29.96- 63.7 65.8----
2024-05-17 09:06 amENE 4.1 7.0----29.96- 63.7 65.8----
2024-05-17 09:00 amENE 5.1 8.9----29.96+0.03 63.7 65.8----
2024-05-17 08:54 amENE 5.1 8.9----29.96- 63.3 65.8----
2024-05-17 08:48 am NE 7.0 9.9----29.96- 63.3 65.8----
2024-05-17 08:42 amENE 6.0 9.9----29.96- 63.1 65.8----
2024-05-17 08:36 am NE 5.1 7.0----29.96- 63.1 65.8----
2024-05-17 08:30 am NE 4.1 6.0----29.96- 63.1 65.8----
2024-05-17 08:24 am NE 4.1 6.0----29.96- 63.1 65.8----
2024-05-17 08:18 amENE 5.1 7.0----29.96- 63.0 65.8----
2024-05-17 08:12 amENE 4.1 5.1----29.96- 63.0 65.8----
2024-05-17 08:06 amENE 2.9 5.1----29.96- 62.8 65.8----
2024-05-17 08:00 amENE 2.9 5.1----29.96+0.04 62.8 65.8----
2024-05-17 07:54 am E 2.9 2.9----29.96- 62.8 65.8----
2024-05-17 07:48 am- 0.0 1.9----29.96- 63.0 65.8----
2024-05-17 07:42 amNNE 1.0 1.9----29.96- 62.8 65.8----
2024-05-17 07:36 amENE 1.9 1.9----29.96- 62.6 65.8----
2024-05-17 07:30 amENE 1.9 2.9----29.96- 62.6 65.8----
2024-05-17 07:24 amENE 1.9 2.9----29.95- 62.6 65.8----
2024-05-17 07:18 am NE 1.9 2.9----29.95- 62.6 65.8----
2024-05-17 07:12 amENE 1.0 1.9----29.95- 62.6 65.8----
2024-05-17 07:06 am NE 1.0 1.9----29.95- 62.6 65.8----
2024-05-17 07:00 am NE 1.0 1.9----29.95+0.04 62.6 66.0----
2024-05-17 06:54 amNNE 1.9 2.9----29.95- 62.8 66.0----
2024-05-17 06:48 am NE 1.0 1.9----29.95- 62.8 66.0----
2024-05-17 06:42 amENE 1.0 4.1----29.94- 62.6 66.0----
2024-05-17 06:36 amNNE 2.9 4.1----29.94- 62.8 66.0----
2024-05-17 06:30 amNNE 2.9 4.1----29.94- 62.8 66.0----
2024-05-17 06:24 amNNE 1.9 4.1----29.94- 62.8 66.0----
2024-05-17 06:18 amNNE 2.9 5.1----29.93- 62.8 66.0----
2024-05-17 06:12 amNNE 2.9 2.9----29.93- 62.8 66.0----
2024-05-17 06:06 amNNE 1.9 2.9----29.93- 62.8 66.0----
2024-05-17 06:00 amNNE 1.9 2.9----29.93+0.05 62.8 66.0----
2024-05-17 05:54 amNNE 1.9 2.9----29.93- 63.0 66.0----
2024-05-17 05:48 amNNE 2.9 4.1----29.92- 63.0 66.0----
2024-05-17 05:42 amNNW 2.9 5.1----29.92- 63.0 66.0----
2024-05-17 05:36 am N 2.9 5.1----29.92- 63.0 66.0----
2024-05-17 05:30 am N 2.9 2.9----29.92- 63.0 66.0----
2024-05-17 05:24 am N 2.9 4.1----29.92- 63.0 66.0----
2024-05-17 05:18 amNNW 4.1 5.1----29.91- 63.1 66.0----
2024-05-17 05:12 am N 2.9 4.1----29.91- 63.0 66.0----
2024-05-17 05:06 am N 2.9 4.1----29.91- 63.0 66.0----
2024-05-17 05:00 am N 2.9 4.1----29.92- 63.1 66.0----
2024-05-17 04:54 amNNW 2.9 4.1----29.92- 63.1 66.0----
2024-05-17 04:48 am NW 2.9 4.1----29.92- 63.3 66.0----
2024-05-17 04:42 am NW 4.1 5.1----29.92- 63.3 66.0----
2024-05-17 04:36 amNNW 2.9 4.1----29.91- 63.3 66.0----
2024-05-17 04:30 am N 2.9 4.1----29.91- 63.3 66.0----
2024-05-17 04:24 am N 2.9 4.1----29.91- 63.3 65.8----
2024-05-17 04:18 am N 2.9 4.1----29.91- 63.3 65.8----
2024-05-17 04:12 am N 1.9 4.1----29.91- 63.3 65.8----
2024-05-17 04:06 amNNW 2.9 4.1----29.91- 63.3 65.8----
2024-05-17 04:00 am N 1.9 2.9----29.91+0.06 63.3 65.8----
2024-05-17 03:54 am N 1.9 4.1----29.91- 63.5 65.8----
2024-05-17 03:48 am NW 2.9 4.1----29.91- 63.5 65.8----
2024-05-17 03:42 amNNW 1.9 2.9----29.91- 63.5 65.8----
2024-05-17 03:36 am N 1.0 1.9----29.90- 63.3 65.7----
2024-05-17 03:30 amNNE 1.0 1.9----29.90- 63.3 65.7----
2024-05-17 03:24 am NE 1.0 2.9----29.89- 63.3 65.7----
2024-05-17 03:18 am NE 1.9 5.1----29.89- 63.3 65.7----
2024-05-17 03:12 amENE 2.9 5.1----29.88- 63.5 65.7----
2024-05-17 03:06 amENE 2.9 5.1----29.88- 63.3 65.7----
2024-05-17 03:00 amENE 2.9 4.1----29.88+0.02 63.3 65.5----
2024-05-17 02:54 amENE 4.1 6.0----29.87- 63.3 65.5----
2024-05-17 02:48 amENE 5.1 8.0----29.86- 63.3 65.5----
2024-05-17 02:42 amENE 6.0 8.0----29.86- 63.3 65.5----
2024-05-17 02:36 amENE 4.1 6.0----29.87- 63.3 65.5----
2024-05-17 02:30 amENE 6.0 8.9----29.87- 63.5 65.5----
2024-05-17 02:24 am NE 4.1 6.0----29.87- 63.5 65.5----
2024-05-17 02:18 amNNE 4.1 8.0----29.87- 63.5 65.5----
2024-05-17 02:12 am NE 4.1 7.0----29.86- 63.3 65.5----
2024-05-17 02:06 am NE 5.1 7.0----29.86- 63.3 65.3----
2024-05-17 02:00 amENE 5.1 6.0------ 63.5 65.5----
2024-05-17 01:54 amENE 5.1 7.0------ 63.5 65.3----
2024-05-17 01:48 am NE 4.1 8.0----29.86- 63.5 65.3----
2024-05-17 01:42 amENE 6.0 9.9----29.85- 63.7 65.3----
2024-05-17 01:36 amENE 7.0 9.9----29.86- 63.7 65.3----
2024-05-17 01:30 amENE 5.1 8.9----29.86- 63.9 65.3----
2024-05-17 01:24 amENE 5.1 11.1----29.86- 63.9 65.3----
2024-05-17 01:18 amENE 7.0 12.0----29.86- 63.9 65.3----
2024-05-17 01:12 amENE 6.0 8.9----29.85- 63.9 65.3----
2024-05-17 01:06 amENE 6.0 11.1----29.85- 64.0 65.3----
2024-05-17 01:00 am E 8.0 9.9----29.85-0.02 64.0 65.3----
2024-05-17 12:54 am E 7.0 11.1----29.85- 64.2 65.3----
2024-05-17 12:48 amENE 7.0 8.9----29.85- 64.2 65.3----
2024-05-17 12:42 am E 7.0 8.9----29.85- 64.2 65.5----
2024-05-17 12:36 amENE 6.0 7.0----29.85- 64.2 65.8----
2024-05-17 12:30 amENE 6.0 8.9----29.85- 64.4 65.8----
2024-05-17 12:24 am E 8.0 8.9----29.85- 64.4 65.8----
2024-05-17 12:18 am E 7.0 8.9----29.85- 64.4 65.8----
2024-05-17 12:12 amENE 6.0 9.9----29.85- 64.2 65.8----
2024-05-17 12:06 amENE 8.0 9.9----29.85- 64.2 65.8----
2024-05-17 12:00 amENE 6.0 7.0----29.85+0.01 64.2 65.8----
2024-05-16 11:54 pmENE 5.1 7.0----29.85- 64.0 65.8----
2024-05-16 11:48 pmENE 5.1 6.0----29.85- 64.0 66.0----
2024-05-16 11:42 pmENE 4.1 7.0----29.85- 64.0 66.0----
2024-05-16 11:36 pm NE 2.9 7.0----29.85- 64.2 66.0----
2024-05-16 11:30 pmENE 5.1 7.0----29.85- 64.2 66.0----
2024-05-16 11:24 pmENE 5.1 8.9----29.86- 64.4 66.0----
2024-05-16 11:18 pm NE 5.1 7.0----29.86- 64.2 66.0----
2024-05-16 11:12 pm NE 2.9 7.0----29.86- 64.2 66.2----
2024-05-16 11:06 pm NE 4.1 7.0----29.86- 64.4 66.2----
2024-05-16 11:00 pmENE 4.1 7.0----29.87+0.04 64.4 66.2----
2024-05-16 10:54 pmENE 5.1 6.0----29.86- 64.4 66.2----
2024-05-16 10:48 pmENE 4.1 6.0----29.86- 64.4 66.2----
2024-05-16 10:42 pm NE 4.1 5.1----29.87- 64.6 66.2----
2024-05-16 10:36 pm NE 2.9 5.1----29.87- 64.6 66.4----
2024-05-16 10:30 pm NE 4.1 6.0----29.86- 64.8 66.4----
2024-05-16 10:24 pm NE 6.0 8.9----29.87- 64.9 66.4----
2024-05-16 10:18 pm NE 5.1 7.0----29.87- 64.9 66.4----
2024-05-16 10:12 pmNNE 5.1 8.9----29.87- 64.9 66.4----
2024-05-16 10:06 pm NE 4.1 9.9----29.87- 65.1 66.4----
2024-05-16 10:00 pmNNE 5.1 12.0----29.87+0.07 65.1 66.4----
2024-05-16 09:54 pm NE 5.1 8.9----29.87- 65.1 66.4----
2024-05-16 09:48 pm NE 5.1 7.0----29.87- 65.1 66.4----
2024-05-16 09:42 pm NE 4.1 8.9----29.86- 65.1 66.4----
2024-05-16 09:36 pm NE 4.1 7.0----29.86- 64.9 66.4----
2024-05-16 09:30 pmNNE 4.1 12.0----29.86- 65.1 66.4----
2024-05-16 09:24 pmNNE 5.1 7.0----29.85- 65.1 66.4----
2024-05-16 09:18 pmNNE 5.1 8.9----29.85- 65.1 66.2----
2024-05-16 09:12 pmNNE 6.0 11.1----29.85- 65.3 66.2----
2024-05-16 09:06 pmNNE 2.9 5.1----29.85- 65.5 66.2----
2024-05-16 09:00 pmNNE 5.1 9.9----29.84+0.06 65.7 66.2----
2024-05-16 08:54 pm NE 6.0 8.0----29.84- 65.8 66.4----